Halifax, Nova Scotia

8:37 AM ADT on September 24, 2017 (GMT -0300)
Halifax International Airport

Weather History for CYHZ - January, 2014

Change the Weather History Date:

Sunday, January 19, 2014

  Actual Average Record
Temperature  
Mean Temperature 31 °F -  
Max Temperature 34 °F 29 °F 48 °F (1999)
Min Temperature 28 °F 13 °F -7 °F (2003)
Degree Days  
Heating Degree Days 34    
Moisture  
Dew Point 30 °F    
Average Humidity 95    
Maximum Humidity 100    
Minimum Humidity 80    
Precipitation  
Precipitation 0.04 in 0.17 in - ()
Sea Level Pressure  
Sea Level Pressure 29.56 in    
Wind  
Wind Speed 10 mph ()    
Max Wind Speed 23 mph    
Max Gust Speed 37 mph    
Visibility 6.0 miles    
Events Fog , Snow    
Averages and records for this station are not official NWS values.
T = Trace of Precipitation, MM = Missing Value Source: Averaged Metar Reports

Daily Weather History Graph

Daily Weather History Graph

Search for Another Location

Airport or City:

Trip Planner

Search our weather history database for the weather conditions in past years. The results will help you decide how hot, cold, wet, or windy it might be!

Date:

Astronomy

Jan. 19, 2014 Rise Set
Actual Time 7:45 AM AST 5:04 PM AST
Civil Twilight 7:13 AM AST 5:36 PM AST
Nautical Twilight 6:37 AM AST 6:12 PM AST
Astronomical Twilight 6:02 AM AST 6:47 PM AST
Moon 8:49 PM AST (1/19) 9:03 AM AST (1/19)
Length of Visible Light 10h 23m
Length of Day
9h 18m
Waning Gibbous, 90% of the Moon is Illuminated
Jan 19
Waning Gibbous
Jan 24
Last Quarter
Jan 30
New
Feb 6
First Quarter
Feb 14
Full

Hourly Weather History & Observations

Time (AST) Temp. Windchill Dew Point Humidity Pressure Visibility Wind Dir Wind Speed Gust Speed Precip Events Conditions
12:00 AM 30.2 °F 20.2 °F 30.2 °F 100% 29.49 in 1.8 mi North 12.7 mph - N/A Snow Light Snow
1:00 AM 30.2 °F 20.8 °F 30.2 °F 100% 29.51 in 1.2 mi NNW 11.5 mph - N/A Snow Light Snow
1:17 AM 30.2 °F 20.2 °F 30.2 °F 100% 29.52 in 2.0 mi NW 12.7 mph - N/A Snow Light Snow
2:00 AM 31 °F - 31 °F 97% 29.55 in 2 mi NNW 11.5 mph - - Snow Light Snow
2:00 AM 30.2 °F 20.8 °F 30.2 °F 100% 29.55 in 2.0 mi NW 11.5 mph - N/A Snow Light Snow
2:26 AM 30.2 °F 21.3 °F 30.2 °F 100% 29.57 in 3.0 mi NNW 10.4 mph - N/A Snow Light Snow
3:00 AM 30.2 °F 22.6 °F 30.2 °F 100% 29.59 in 8.0 mi NW 8.1 mph - N/A Snow Light Snow
3:20 AM 30.2 °F 21.9 °F 30.2 °F 100% 29.60 in 8.0 mi NW 9.2 mph - N/A   Mostly Cloudy
3:31 AM 30.2 °F 24.3 °F 30.2 °F 100% 29.61 in 10.0 mi NW 5.8 mph - N/A Snow Light Snow
4:00 AM 30.2 °F 23.4 °F 30.2 °F 100% 29.62 in 8.0 mi WNW 6.9 mph - N/A Snow Light Snow
4:47 AM 30.2 °F 23.4 °F 30.2 °F 100% 29.64 in 12.0 mi WNW 6.9 mph - N/A Snow Light Snow
5:00 AM 30.2 °F 23.4 °F 30.2 °F 100% 29.65 in 15.0 mi WNW 6.9 mph - N/A Snow Light Snow
6:00 AM 30.2 °F 25.4 °F 30.2 °F 100% 29.67 in 15.0 mi West 4.6 mph - N/A Snow Light Snow
6:40 AM 30.2 °F 25.4 °F 28.4 °F 93% 29.67 in 15.0 mi NNW 4.6 mph - N/A Snow Light Snow
7:00 AM 30.2 °F 26.7 °F 28.4 °F 93% 29.67 in 4.0 mi NNW 3.5 mph - N/A Snow Light Snow
8:00 AM 29 °F - 29 °F 99% 29.69 in 6 mi SE 2.3 mph - - Snow Light Snow
8:00 AM 28.4 °F - 28.4 °F 100% 29.69 in 6.0 mi SE 2.3 mph - N/A Snow Light Snow
8:12 AM 30.2 °F - 30.2 °F 100% 29.69 in 5.0 mi SSE 2.3 mph - N/A   Mostly Cloudy
9:00 AM 30.2 °F 26.7 °F 30.2 °F 100% 29.69 in 4.0 mi SE 3.5 mph - N/A   Overcast
9:36 AM 30.2 °F 24.3 °F 30.2 °F 100% 29.70 in 1.5 mi South 5.8 mph - N/A   Overcast
10:00 AM 30.2 °F 24.3 °F 30.2 °F 100% 29.69 in 1.5 mi SSE 5.8 mph - N/A Snow Light Snow Showers
10:48 AM 32.0 °F 24.2 °F 30.2 °F 93% 29.69 in 3.0 mi SSE 9.2 mph - N/A   Overcast
11:00 AM 32.0 °F 23.6 °F 30.2 °F 93% 29.69 in 3.0 mi SSE 10.4 mph - N/A   Overcast
12:00 PM 32.0 °F 24.2 °F 30.2 °F 93% 29.65 in 3.0 mi SSE 9.2 mph - N/A   Overcast
1:00 PM 32.0 °F 23.6 °F 30.2 °F 93% 29.61 in 3.0 mi SSE 10.4 mph 19.6 mph N/A Snow Light Snow Showers
1:24 PM 32.0 °F 22.1 °F 30.2 °F 93% 29.59 in 3.0 mi SSE 13.8 mph 21.9 mph N/A   Overcast
1:48 PM 32.0 °F 22.5 °F 32.0 °F 100% 29.56 in 0.8 mi SSE 12.7 mph - N/A   Overcast
1:52 PM 32.0 °F 23.0 °F 32.0 °F 100% 29.56 in 0.8 mi SSE 11.5 mph - N/A Snow Light Snow Showers
2:00 PM 32 °F - 31 °F 97% 29.56 in 1 mi SSE 11.5 mph - - Snow Light Snow Showers
2:00 PM 32.0 °F 23.0 °F 32.0 °F 100% 29.55 in 0.8 mi SSE 11.5 mph - N/A Snow Light Snow Showers
2:20 PM 32.0 °F 23.0 °F 32.0 °F 100% 29.54 in 0.5 mi SSE 11.5 mph 17.3 mph N/A Fog , Snow Light Snow Showers
3:00 PM 32.0 °F 23.0 °F 32.0 °F 100% 29.52 in 0.8 mi SSE 11.5 mph 19.6 mph N/A Snow Light Snow Showers
3:18 PM 32.0 °F 21.6 °F 32.0 °F 100% 29.51 in 1.0 mi South 15.0 mph 20.7 mph N/A Snow Light Snow Showers
3:35 PM 33.8 °F 23.9 °F 32.0 °F 93% 29.50 in 3.0 mi South 15.0 mph - N/A   Overcast
4:00 PM 33.8 °F 24.3 °F 32.0 °F 93% 29.48 in 8.0 mi South 13.8 mph 27.6 mph N/A   Overcast
4:45 PM 33.8 °F 23.2 °F 32.0 °F 93% 29.46 in 2.0 mi SSW 17.3 mph 28.8 mph N/A Snow Light Snow Showers
5:00 PM 33.8 °F 21.9 °F 32.0 °F 93% 29.46 in 1.0 mi SSW 21.9 mph 29.9 mph N/A Snow Light Snow Showers
6:00 PM 33.8 °F 23.2 °F 30.2 °F 87% 29.44 in 6.0 mi SSW 17.3 mph 35.7 mph N/A Snow Light Snow Showers
6:38 PM 33.8 °F 22.8 °F 30.2 °F 87% 29.43 in 10.0 mi SW 18.4 mph 26.5 mph N/A Snow Light Snow Showers
7:00 PM 33.8 °F 21.6 °F 30.2 °F 87% 29.43 in 12.0 mi SSW 23.0 mph 34.5 mph N/A Snow Light Snow Showers
8:00 PM 33 °F - 30 °F 83% 29.42 in 15 mi SW 21.9 mph - - Snow Light Snow Showers
8:00 PM 33.8 °F 21.9 °F 30.2 °F 87% 29.42 in 15.0 mi SW 21.9 mph 31.1 mph N/A Snow Light Snow Showers
9:00 PM 33.8 °F 21.6 °F 28.4 °F 81% 29.40 in 15.0 mi SW 23.0 mph 36.8 mph N/A Snow Light Snow Showers
10:00 PM 32.0 °F 20.5 °F 28.4 °F 87% 29.41 in 15.0 mi SW 18.4 mph 29.9 mph N/A Snow Light Snow Showers
11:00 PM 32.0 °F 19.5 °F 26.6 °F 80% 29.41 in 15.0 mi SW 21.9 mph 29.9 mph N/A Snow Light Snow Showers